[Iaude] MPEC L127: 2024 LB4 [a=1.32,e=0.24,i=11.8,H=25.4]

mpec at cfa.harvard.edu mpec at cfa.harvard.edu
Wed Jun 12 18:27:55 EDT 2024


M.P.E.C. 2024-L127                                Issued 2024 June 12, 22:26 UT

     The Minor Planet Electronic Circulars contain information on unusual
         minor planets, routine data on comets and natural satellites,
         and occasional editorial announcements.  They are published
    on behalf of Division F of the International Astronomical Union by the
          Minor Planet Center, Smithsonian Astrophysical Observatory,
                          Cambridge, MA 02138, U.S.A.
			  
             Prepared using the Tamkin Foundation Computer Network

                              MPC at CFA.HARVARD.EDU
            URL https://www.minorplanetcenter.net/    ISSN 1523-6714

                                    2024 LB4                                    


Observations:
     K24L04B 1C2024 06 11.32534 17 47 35.34 +53 12 08.6          20.3 GVEL127G96
     K24L04B 1C2024 06 11.33579 17 47 42.94 +53 09 01.0          20.2 GVEL127G96
     K24L04B 1C2024 06 11.34102 17 47 46.74 +53 07 27.9                VEL127G96
     K24L04B*1C2024 06 12.36046918 03 00.284+47 19 15.24         19.61GVEL127G96
     K24L04B 1C2024 06 12.36517118 03 03.686+47 17 24.86         19.92GVEL127G96
     K24L04B 1C2024 06 12.36987518 03 07.096+47 15 34.49         19.73GVEL127G96
     K24L04B 1C2024 06 12.37458118 03 10.408+47 13 45.80         20.09GVEL127G96
     K24L04B  C2024 06 12.39772218 03 25.943+47 04 20.37         19.8 GVEL127H01
     K24L04B  C2024 06 12.40132018 03 28.606+47 02 54.16         19.9 GVEL127H01
     K24L04B  C2024 06 12.41087518 03 35.692+46 59 04.06         20.0 GVEL127H01
     K24L04B KC2024 06 12.42181518 03 45.072+46 54 55.01         19.88GVEL127I52
     K24L04B KC2024 06 12.42337118 03 46.206+46 54 17.24         20.01GVEL127I52
     K24L04B KC2024 06 12.42492818 03 47.365+46 53 39.30         20.00GVEL127I52
     K24L04B KC2024 06 12.42648518 03 48.532+46 53 01.79         19.93GVEL127I52
     K24L04B  C2024 06 12.43460418 03 53.511+46 49 28.37         19.9 GVEL127H01
     K24L04B  C2024 06 12.43835318 03 56.359+46 47 56.82         20.0 GVEL127H01
     K24L04B KC2024 06 12.88833918 11 07.47 +43 39 42.4          19.4 GVEL127104
     K24L04B KC2024 06 12.89546018 11 13.00 +43 36 39.5          19.6 GVEL127104
     K24L04B KB2024 06 12.90025218 11 20.36 +43 34 13.6          19.5 GXEL127958
     K24L04B KB2024 06 12.90423218 11 23.46 +43 32 31.2          18.7 GXEL127958
     K24L04B KB2024 06 12.90450518 11 23.14 +43 32 21.9          19.7 GXEL127I93
     K24L04B KB2024 06 12.90821618 11 26.51 +43 30 48.9          18.6 GXEL127958
     K24L04B KB2024 06 12.90837018 11 26.15 +43 30 42.7          18.9 GXEL127I93
     K24L04B KB2024 06 12.91176218 11 28.78 +43 29 15.5          19.4 GXEL127I93

Observer details:
104 San Marcello Pistoiese.  Observers P. Bacci, M. Maestripieri.  Measurers
    P. Bacci, L. Tesi, G. Fagioli.  0.60-m F4 Reflector + CCD.
958 Observatoire de Dax.  Observer P. Dupouy.  0.50-m f/4.5 Reflector + CMO.
G96 Mt. Lemmon Survey.  Observer G. J. Leonard.  Measurers B. Gray, D. Rankin,
    F. C. Shelly, T. Beuden, V. F. Carvajal, D. Fay, J. B. Fazekas, D. C.
    Fuls, A. R. Gibbs, A. D. Grauer, H. Groeller, J. K. Hogan, R. A. Kowalski,
    S. M. Larson, G. J. Leonard, R. L. Seaman, K. W. Wierzchos.  1.5-m
    reflector + 10K CCD.
H01 Magdalena Ridge Observatory, Socorro.  Observers W. H. Ryan, E. V. Ryan.
    Measurer W. H. Ryan.  2.4-m f/8.9 Ritchey-Chretien + CCD.
I52 Steward Observatory, Mt. Lemmon Station.  Observer J. B. Fazekas.
    Measurers T. Beuden, V. F. Carvajal, D. Fay, J. B. Fazekas, D. C. Fuls, A.
    R. Gibbs, A. D. Grauer, H. Groeller, J. K. Hogan, R. A. Kowalski, S. M.
    Larson, G. J. Leonard, D. Rankin, R. L. Seaman, F. C. Shelly, K. W.
    Wierzchos.  1.0-m prime focus + CCD.
I93 St Pardon de Conques.  Observer F. Losse.  0.40-m f/3.7 reflector + CMO.

Orbital elements:
2024 LB4                                                 Earth MOID = 0.0182 AU
Epoch 2024 Mar. 31.0 TT = JDT 2460400.5                 MPC                     
M 328.36912              (2000.0)            P               Q                  
n   0.64669119     Peri.  146.78470     -0.55998877     +0.80269497             
a   1.3243560      Node    88.35016     -0.79782571     -0.45569990             
e   0.2421623      Incl.   11.84424     -0.22335331     -0.38473159             
P   1.52           H   25.44          G   0.15           U   7                  
Residuals in seconds of arc
240611 G96  0.2+  0.2-    240612 H01  0.1+  0.3-    240612 104  0.4-  0.1-
240611 G96  0.1-  0.2+    240612 H01  0.0   0.5-    240612 104  0.3+  0.1-
240611 G96 (0.3-  1.6+)   240612 I52  0.2+  0.0     240612 958  0.6+  0.1-
240612 G96  0.3-  0.3+    240612 I52  0.1-  0.1-    240612 958  0.5+  0.4-
240612 G96  0.1-  0.1+    240612 I52  0.0   0.3-    240612 I93  0.0   0.0
240612 G96  0.0   0.2+    240612 I52  0.0   0.1-    240612 958  0.0   0.4-
240612 G96 (0.9-  2.3+)   240612 H01  0.1-  0.4-    240612 I93  0.0   0.1+
240612 H01  0.0   0.3-    240612 H01  0.1-  0.3-    240612 I93  0.0   0.3+

Ephemeris:
2024 LB4                 a,e,i = 1.32, 0.24, 12                  q = 1.0036
Date    TT    R. A. (2000) Decl.     Delta      r    Elong.  Phase     V
2024 05 13    13 11 05.8 +75 51 40   0.1431  1.0049    83.7    88.1    24.3
...
2024 05 28    14 44 19.0 +74 15 14   0.08559 1.0066    83.0    92.1    23.4
...
2024 06 05    16 14 35.7 +69 28 08   0.05345 1.0139    87.7    89.2    22.3
...
2024 06 11    17 42 39.7 +54 43 59   0.03083 1.0222   102.0    76.3    20.6
2024 06 12    17 57 41.9 +49 31 17   0.02758 1.0238   106.9    71.6    20.2
2024 06 13    18 12 29.8 +42 51 10   0.02468 1.0255   113.1    65.7    19.8
...
2024 06 19    19 30 38.8 -22 31 15   0.02237 1.0367   157.0    22.5    18.3
...
2024 06 27    20 37 12.5 -57 34 03   0.05042 1.0547   138.2    39.9    20.6
...
2024 07 12    21 19 39.2 -67 11 34   0.1154  1.0963   131.4    44.1    22.6

A. U. Tomatic                (C) Copyright 2024 MPC           M.P.E.C. 2024-L127





More information about the Iaude mailing list